Regional Weather Roundup
Issued by NWS

Home | Current Version | Previous Version | Graphics & Text | Print | Product List | Glossary On
Versions: 1 2 3 4 5 6 7 8 9 10 11 12 13 14 15 16 17 18 19 20 21 22 23 24 25 26 27 28 29 30 31 32 33 34 35 36 37 38 39 40 41 42 43 44 45 46 47 48 49 50
000
ASUS45 KBOU 131210
RWRCO

WEATHER ROUNDUP FOR COLORADO
NATIONAL WEATHER SERVICE DENVER/BOULDER CO
600 AM MDT SUN JUL 13 2014

NOTE: "FAIR" INDICATES FEW OR NO CLOUDS BELOW 12000 FEET WITH NO
SIGNIFICANT WEATHER AND/OR OBSTRUCTIONS TO VISIBILITY.

COZ001>005-013-030-031-131300-
...NORTHWEST COLORADO...

CITY           SKY/WX    TMP DP  RH WIND       PRES   REMARKS
CRAIG          CLEAR     48  32  53 SW3       30.36R
HAYDEN         CLEAR     55  46  71 E16       30.37R
MEEKER         PTCLDY    54  49  83 NE3       30.36R
MOUNT WERNER   NOT AVBL
STEAMBOAT SPGS CLEAR     52  46  82 CALM      30.40R
WALDEN         CLEAR     41  37  87 SE6       30.50R
$$

COZ006>008-011-131300-
...WEST CENTRAL VALLEYS...

CITY           SKY/WX    TMP DP  RH WIND       PRES   REMARKS
GRAND JUNCTION   N/A     70  51  51 SE12      30.22R
MONTROSE       PTCLDY    68  51  54 E22G29    30.32R
EAGLE          PTCLDY    55  54  94 SE3       30.42R
RIFLE          PTCLDY    62  54  74 CALM      30.30R
DELTA          PTCLDY    65  52  62 NE5       30.27R
NUCLA          PTCLDY    64  46  52 E5        30.34R
$$

COZ017>023-064>068-131300-
...SOUTHWEST COLORADO...

CITY           SKY/WX    TMP DP  RH WIND       PRES   REMARKS
DURANGO        PTCLDY    57  50  77 N5        30.38R
CORTEZ         CLEAR     60  50  69 SE7       30.30R
PAGOSA SPRINGS CLOUDY    61  49  65 CALM      30.46R
TELLURIDE      MOCLDY    57  46  67 SE7       30.53S
WOLF CREEK PAS NOT AVBL
$$

COZ009-010-012-014-032>034-037-058>063-131300-
...CENTRAL COLORADO...

CITY           SKY/WX    TMP DP  RH WIND       PRES   REMARKS
ASPEN          PTCLDY    51  47  86 SW3       30.45S
BUENA VISTA    PTCLDY    52  49  89 NW7       30.50S
COPPER MTN     PTCLDY    54  41  62 S6        30.75R
BERTHOUD PASS  FAIR      41  28  60 W6        30.79S
COTTONWOOD PAS PTCLDY    54  45  71 CALM      30.61S
GUNNISON       PTCLDY    48  45  87 CALM      30.51S
KREMMLING      PTCLDY    50  45  81 CALM      30.49R
LEADVILLE      CLOUDY    44  43  96 NE6       30.61S
MONARCH PASS   PTCLDY    45  39  81 SW8       30.84S
SALIDA         PTCLDY    54  48  80 W5        30.55S
SUNLIGHT       PTCLDY    54  46  76 E3        30.68R
WILKERSON PASS CLEAR     45  43  93 CALM      30.74R
$$

COZ069>075-131300-
...SAN LUIS VALLEY/SANGRE DE CRISTO MOUNTAINS...

CITY           SKY/WX    TMP DP  RH WIND       PRES   REMARKS
ALAMOSA        MOCLDY    54  50  86 CALM      30.45R
LA VETA PASS   CLOUDY    52  43  71 CALM      30.63S
SAGUACHE       NOT AVBL
$$

COZ035-036-038>040-131300-
...NORTHERN COLORADO FRONT RANGE...

CITY           SKY/WX    TMP DP  RH WIND       PRES   REMARKS
DENVER INTL AP MOCLDY    61  57  87 SW8       30.34R
DMNS CITY PARK   N/A     61  57  87 S3        30.34S
AURORA         MOCLDY    59  58  96 S7        30.36R
FRONT RANGE AP NOT AVBL
ERIE MUNI ARPT CLEAR     57  55  95 SW6       30.32S
BOULDER MUN AP CLEAR     61  57  88 W5        30.33R
CENTENNIAL     MOCLDY    59  55  87 S3        30.37R
BROOMFIELD     CLEAR     61  54  77 CALM      30.36R
FORT COLLINS   PTCLDY    59  55  88 CALM      30.32R
LONGMONT       PTCLDY    58  55  89 W5        30.33S
$$

COZ041-046-047-076>085-087-088-131300-
...PIKES PEAK/PALMER DIVIDE AND SOUTHERN FOOTHILLS...

CITY           SKY/WX    TMP DP  RH WIND       PRES   REMARKS
COLO. SPRINGS  MOCLDY    59  54  83 N9        30.39R
A. F. ACADEMY  PTCLDY    54  54 100 N7        30.41R
ELLICOTT       PTCLDY    59  55  87 N6        30.37R
FALCON         PTCLDY    59  53  81 N7        30.44R
FORT CARSON    PTCLDY    58  55  91 NW10      30.35S
LIMON          MOCLDY    59  59 100 N3        30.34S
MONUMENT HILL  CLEAR     54  52  94 W5        30.43S
TRINIDAD       LGT RAIN  63  59  87 CALM      30.37R
$$

COZ042>045-048>051-090-091-131300-
...NORTHEAST COLORADO...

CITY           SKY/WX    TMP DP  RH WIND       PRES   REMARKS
GREELEY ARPT   NOT AVBL
AKRON          CLEAR     61  59  93 W7        30.30R
BURLINGTON     CLOUDY    65  61  87 NW6       30.25S
WRAY           PTCLDY   N/A N/A N/A CALM      30.24S
STERLING       CLEAR     63  63 100 CALM      30.26S
HOLYOKE        PTCLDY    61  59  94 CALM      30.25S
FORT MORGAN      N/A     57  55  94 CALM      30.30R
$$

COZ086-089-092>099-131300-
...SOUTHEAST COLORADO...

CITY           SKY/WX    TMP DP  RH WIND       PRES   REMARKS
PUEBLO         MOCLDY    63  61  93 CALM      30.30R
LA JUNTA       CLOUDY    67  63  87 NW8       30.24F
LAMAR          CLOUDY    67  64  90 NW8       30.21S
SPRINGFIELD      N/A     64  60  87 NW9       30.26R
$$


USA.gov is the U.S. government's official web portal to all federal, state and local government web resources and services.